Location: Recife
(8.0585°S, 34.8848°W)
Time: 02:01:48
(UTC-03:00)

Vanguard 3 - Pass Details

Date: 18 April 2026
Orbit: 507 x 3205 km, 33.4° (Epoch: 15 May)

Event Time Altitude Azimuth Distance (km) Brightness Sun altitude
Rises 04:10:47 0° 343° (NNW) 3,455 10.3 -18.1°
Reaches altitude 10° 04:13:39 10° 0° (N) 2,837 10.0 -17.4°
Maximum altitude 04:18:49 21° 48° (NE) 2,688 10.5 -16.2°
Drops below altitude 10° 04:26:14 10° 91° (E) 4,268 12.2 -14.4°
Sets 04:31:52 0° 104° (ESE) 5,830 12.8 -13.0°
